Weather History for KNQA - January, 2014

Change the Weather History Date:

Wednesday, January 1, 2014

  Actual Average Record
Temperature  
Mean Temperature 38 °F -  
Max Temperature 53 °F 49 °F 41 °F (2015)
Min Temperature 24 °F 33 °F 30 °F (2015)
Degree Days  
Heating Degree Days 26    
Moisture  
Dew Point 30 °F    
Average Humidity 79    
Maximum Humidity 100    
Minimum Humidity 44    
Precipitation  
Precipitation 0.00 in - - ()
Sea Level Pressure  
Sea Level Pressure 30.17 in    
Wind  
Wind Speed 3 mph (SE)    
Max Wind Speed 9 mph    
Max Gust Speed -    
Visibility 10 miles    
Events      
Averages and records for this station are not official NWS values.
T = Trace of Precipitation, MM = Missing Value Source: NWS Daily Summary

Daily Weather History Graph

Daily Weather History Graph

Search for Another Location

Airport or City:

Trip Planner

Search our weather history database for the weather conditions in past years. The results will help you decide how hot, cold, wet, or windy it might be!

Date:

Astronomy

Jan. 01, 2014 Rise Set
Actual Time 7:08 AM CST 4:57 PM CST
Civil Twilight 6:40 AM CST 5:26 PM CST
Nautical Twilight 6:08 AM CST 5:57 PM CST
Astronomical Twilight 5:37 AM CST 6:28 PM CST
Moon 7:01 AM CST (1/1) 5:40 PM CST (1/1)
Length of Visible Light 10h 45m
Length of Day
9h 49m
New Moon, 0% of the Moon is Illuminated
Jan 1
New Moon
Jan 7
First Quarter
Jan 15
Full
Jan 23
Last Quarter
Jan 30
New

Hourly Weather History & Observations

Time (CST) Temp. Windchill Dew Point Humidity Pressure Visibility Wind Dir Wind Speed Gust Speed Precip Events Conditions
12:50 AM 28.4 °F - 28.4 °F 100% 30.31 in 10.0 mi Calm Calm - N/A   Clear
1:50 AM 26.6 °F - 26.6 °F 100% 30.30 in 10.0 mi Calm Calm - N/A   Clear
2:15 AM 24.8 °F 19.1 °F 24.8 °F 100% 30.28 in 10.0 mi ESE 4.6 mph - N/A   Clear
2:35 AM 26.6 °F - 24.8 °F 93% 30.29 in 9.0 mi Calm Calm - N/A   Clear
2:55 AM 26.6 °F - 26.6 °F 100% 30.28 in 10.0 mi Calm Calm - N/A   Clear
3:15 AM 24.8 °F 20.5 °F 24.8 °F 100% 30.27 in 10.0 mi ESE 3.5 mph - N/A   Clear
3:35 AM 24.8 °F 20.5 °F 24.8 °F 100% 30.26 in 10.0 mi SE 3.5 mph - N/A   Clear
3:55 AM 24.8 °F 19.1 °F 23.0 °F 93% 30.26 in 10.0 mi SE 4.6 mph - N/A   Clear
4:15 AM 26.6 °F 20.0 °F 26.6 °F 100% 30.26 in 10.0 mi SE 5.8 mph - N/A   Clear
4:35 AM 26.6 °F 22.6 °F 24.8 °F 93% 30.26 in 10.0 mi ESE 3.5 mph - N/A   Clear
4:55 AM 26.6 °F - 24.8 °F 93% 30.25 in 10.0 mi Calm Calm - N/A   Clear
5:30 AM 26.6 °F - 24.8 °F 93% 30.26 in 10.0 mi Calm Calm - N/A   Clear
5:55 AM 24.8 °F - 24.8 °F 100% 30.26 in 10.0 mi Calm Calm - N/A   Clear
6:55 AM 24.8 °F 20.5 °F 24.8 °F 100% 30.25 in 10.0 mi East 3.5 mph - N/A   Clear
7:55 AM 28.4 °F 24.6 °F 26.6 °F 93% 30.25 in 10.0 mi ESE 3.5 mph - N/A   Clear
8:55 AM 33.8 °F 28.6 °F 30.2 °F 87% 30.24 in 10.0 mi Variable 5.8 mph - N/A   Clear
9:55 AM 39.2 °F 34.2 °F 32.0 °F 75% 30.24 in 10.0 mi South 6.9 mph - N/A   Clear
10:55 AM 44.6 °F 40.7 °F 33.8 °F 66% 30.22 in 10.0 mi Variable 6.9 mph - N/A   Clear
11:55 AM 48.2 °F - 33.8 °F 58% 30.18 in 10.0 mi South 8.1 mph - N/A   Clear
12:50 PM 50.0 °F - 33.8 °F 54% 30.14 in 10.0 mi SSW 5.8 mph - N/A   Partly Cloudy
1:50 PM 53.6 °F - 33.8 °F 47% 30.11 in 10.0 mi Calm Calm - N/A   Partly Cloudy
2:50 PM 53.6 °F - 32.0 °F 44% 30.08 in 10.0 mi Calm Calm - N/A   Partly Cloudy
3:50 PM 53.6 °F - 32.0 °F 44% 30.06 in 10.0 mi SSE 6.9 mph - N/A   Scattered Clouds
4:50 PM 50.0 °F - 32.0 °F 50% 30.04 in 10.0 mi SSE 4.6 mph - N/A   Scattered Clouds
5:50 PM 50.0 °F - 33.8 °F 54% 30.01 in 10.0 mi ESE 9.2 mph - N/A   Overcast
6:50 PM 48.2 °F - 35.6 °F 62% 30.02 in 10.0 mi SE 5.8 mph - N/A   Overcast
7:50 PM 48.2 °F - 35.6 °F 62% 29.99 in 10.0 mi SE 8.1 mph - N/A   Mostly Cloudy
8:50 PM 48.2 °F - 37.4 °F 66% 29.98 in 10.0 mi SSE 6.9 mph - N/A   Mostly Cloudy
9:50 PM 48.2 °F - 39.2 °F 71% 29.97 in 10.0 mi SSE 8.1 mph - N/A   Overcast
10:50 PM 48.2 °F - 42.8 °F 82% 29.96 in 10.0 mi SSE 5.8 mph - N/A   Overcast
11:50 PM 48.2 °F - 42.8 °F 82% 29.95 in 10.0 mi South 4.6 mph - N/A   Overcast